When you browse on this site, cookies collect data to enhance your experience and personalize the content and advertising you see.
Visit our Privacy Policy to learn more. By continuing to use the site, you agree to this use of cookies and data.
  • In United Kingdom
  • List of Countries
  • For 7 days
  • Water Temperature
  • Weather Map
  • Weather Widgets
  • user-avatar
    Login

    Hourly Weather Aberaeron

    Today, 23 August, Friday

    Time Temperature Precipitation Wind Pressure Humidity
    00:00 +17°C° 0 mm 4 mps 759 mmHg 98%
    01:00 +17°C° 0 mm 4 mps 759 mmHg 98%
    02:00 +17°C° 0 mm 3 mps 759 mmHg 97%
    03:00 +17°C° 0 mm 3 mps 759 mmHg 97%
    04:00 +17°C° 0 mm 3 mps 759 mmHg 97%
    05:00 +17°C° 0 mm 3 mps 759 mmHg 97%
    06:00 +17°C° 0 mm 2 mps 759 mmHg 96%
    07:00 +17°C° 0 mm 3 mps 759 mmHg 94%
    08:00 +18°C° 0 mm 3 mps 759 mmHg 92%
    09:00 +18°C° 0 mm 3 mps 759 mmHg 90%
    10:00 +19°C° 0 mm 3 mps 759 mmHg 86%
    11:00 +20°C° 0 mm 2 mps 759 mmHg 83%
    12:00 +21°C° 0 mm 2 mps 759 mmHg 80%
    13:00 +21°C° 0 mm 2 mps 758 mmHg 78%
    14:00 +23°C° 0 mm 2 mps 758 mmHg 76%
    15:00 +22°C° 0 mm 3 mps 758 mmHg 73%
    16:00 +23°C° 0 mm 2 mps 758 mmHg 77%
    17:00 +21°C° 0 mm 2 mps 757 mmHg 80%
    18:00 +21°C° 0 mm 2 mps 757 mmHg 83%
    19:00 +19°C° 0 mm 2 mps 757 mmHg 84%
    20:00 +17°C° 0 mm 3 mps 757 mmHg 85%
    21:00 +14°C° 0 mm 3 mps 757 mmHg 86%
    22:00 +14°C° 0 mm 3 mps 757 mmHg 85%
    23:00 +13°C° 0 mm 3 mps 756 mmHg 84%

    Tomorrow, 24 August, Saturday

    Time Temperature Precipitation Wind Pressure Humidity
    00:00 +13°C° 0 mm 3 mps 756 mmHg 84%
    01:00 +13°C° 0 mm 3 mps 756 mmHg 82%
    02:00 +12°C° 0 mm 3 mps 756 mmHg 81%
    03:00 +12°C° 0 mm 3 mps 756 mmHg 80%
    04:00 +12°C° 0 mm 3 mps 755 mmHg 80%
    05:00 +12°C° 0 mm 4 mps 755 mmHg 80%
    06:00 +13°C° 0 mm 4 mps 755 mmHg 79%
    07:00 +15°C° 0 mm 4 mps 755 mmHg 76%
    08:00 +18°C° 0 mm 4 mps 755 mmHg 73%
    09:00 +20°C° 0 mm 4 mps 755 mmHg 70%
    10:00 +21°C° 0 mm 5 mps 754 mmHg 69%
    11:00 +23°C° 0 mm 5 mps 754 mmHg 67%
    12:00 +24°C° 0 mm 6 mps 754 mmHg 66%
    13:00 +25°C° 0 mm 5 mps 754 mmHg 67%
    14:00 +25°C° 0 mm 5 mps 753 mmHg 68%
    15:00 +26°C° 0 mm 5 mps 753 mmHg 69%
    16:00 +25°C° 0 mm 5 mps 753 mmHg 73%
    17:00 +23°C° 0 mm 4 mps 753 mmHg 76%
    18:00 +22°C° 0 mm 4 mps 752 mmHg 80%
    19:00 +21°C° 0 mm 3 mps 753 mmHg 82%
    20:00 +19°C° 0 mm 3 mps 753 mmHg 83%
    21:00 +18°C° 0 mm 2 mps 753 mmHg 85%
    22:00 +17°C° 0 mm 2 mps 753 mmHg 85%
    23:00 +17°C° 0 mm 2 mps 753 mmHg 85%

    Day after tomorrow, 25 August, Sunday

    Time Temperature Precipitation Wind Pressure Humidity
    00:00 +17°C° 0 mm 2 mps 753 mmHg 84%
    01:00 +17°C° 0 mm 2 mps 753 mmHg 86%
    02:00 +16°C° 0 mm 2 mps 753 mmHg 87%
    03:00 +16°C° 0 mm 2 mps 753 mmHg 88%
    04:00 +16°C° 0 mm 1 mps 753 mmHg 89%
    05:00 +16°C° 0 mm 1 mps 753 mmHg 89%
    06:00 +16°C° 0 mm 1 mps 753 mmHg 89%
    07:00 +18°C° 0 mm 1 mps 753 mmHg 86%
    08:00 +20°C° 0 mm 1 mps 753 mmHg 83%
    09:00 +21°C° 0 mm 1 mps 754 mmHg 80%
    10:00 +22°C° 0 mm 1 mps 754 mmHg 78%
    11:00 +22°C° 0 mm 1 mps 754 mmHg 77%
    12:00 +23°C° 0 mm 1 mps 754 mmHg 75%
    13:00 +23°C° 0 mm 1 mps 754 mmHg 75%
    14:00 +24°C° 0 mm 1 mps 754 mmHg 75%
    15:00 +24°C° 0 mm 2 mps 754 mmHg 75%
    16:00 +23°C° 0 mm 2 mps 754 mmHg 80%
    17:00 +20°C° 0 mm 2 mps 754 mmHg 85%
    18:00 +20°C° 0 mm 1 mps 754 mmHg 90%
    19:00 +19°C° 0 mm 1 mps 754 mmHg 91%
    20:00 +16°C° 0 mm 1 mps 754 mmHg 93%
    21:00 +15°C° 0 mm 1 mps 755 mmHg 95%
    22:00 +15°C° 0 mm 1 mps 755 mmHg 94%
    23:00 +15°C° 0 mm 1 mps 755 mmHg 94%

    26 August, Monday

    Time Temperature Precipitation Wind Pressure Humidity
    00:00 +15°C° 0 mm 1 mps 755 mmHg 94%
    01:00 +15°C° 0 mm 1 mps 755 mmHg 94%
    02:00 +14°C° 0 mm 1 mps 754 mmHg 95%
    03:00 +14°C° 0 mm 1 mps 754 mmHg 96%
    04:00 +14°C° 0 mm 1 mps 754 mmHg 96%
    05:00 +14°C° 0 mm 1 mps 754 mmHg 96%
    06:00 +15°C° 0 mm 1 mps 755 mmHg 96%
    07:00 +16°C° 0 mm 1 mps 755 mmHg 92%
    08:00 +18°C° 0 mm 1 mps 755 mmHg 88%
    09:00 +20°C° 0 mm 1 mps 755 mmHg 84%
    10:00 +20°C° 0 mm 1 mps 755 mmHg 79%
    11:00 +21°C° 0 mm 1 mps 755 mmHg 75%
    12:00 +22°C° 0 mm 1 mps 755 mmHg 70%
    13:00 +23°C° 0 mm 1 mps 754 mmHg 70%
    14:00 +23°C° 0 mm 2 mps 754 mmHg 70%
    15:00 +23°C° 0 mm 2 mps 754 mmHg 70%
    16:00 +21°C° 0 mm 2 mps 754 mmHg 75%
    17:00 +21°C° 0 mm 1 mps 753 mmHg 79%
    18:00 +20°C° 0 mm 1 mps 753 mmHg 84%
    19:00 +19°C° 0 mm 1 mps 753 mmHg 87%
    20:00 +16°C° 0 mm 1 mps 754 mmHg 89%
    21:00 +15°C° 0 mm 1 mps 754 mmHg 92%
    22:00 +14°C° 0 mm 0 mps 754 mmHg 92%
    23:00 +13°C° 0 mm 0 mps 754 mmHg 91%

    27 August, Tuesday

    Time Temperature Precipitation Wind Pressure Humidity
    00:00 +13°C° 0 mm 0 mps 753 mmHg 91%
    01:00 +14°C° 0 mm 1 mps 753 mmHg 91%
    02:00 +14°C° 0 mm 1 mps 753 mmHg 91%
    03:00 +14°C° 0 mm 1 mps 753 mmHg 91%
    04:00 +14°C° 0 mm 1 mps 753 mmHg 91%
    05:00 +14°C° 0 mm 1 mps 752 mmHg 90%
    06:00 +14°C° 0 mm 1 mps 752 mmHg 90%
    07:00 +15°C° 0 mm 2 mps 752 mmHg 88%
    08:00 +17°C° 0 mm 2 mps 752 mmHg 86%
    09:00 +18°C° 0 mm 3 mps 752 mmHg 84%
    10:00 +18°C° 0 mm 3 mps 752 mmHg 80%
    11:00 +19°C° 0 mm 3 mps 752 mmHg 77%
    12:00 +20°C° 0 mm 3 mps 752 mmHg 74%
    13:00 +19°C° 0 mm 3 mps 752 mmHg 75%
    14:00 +19°C° 0 mm 4 mps 751 mmHg 77%
    15:00 +19°C° 0 mm 4 mps 751 mmHg 78%
    16:00 +18°C° 0 mm 4 mps 751 mmHg 82%
    17:00 +17°C° 0 mm 4 mps 751 mmHg 86%
    18:00 +17°C° 0 mm 4 mps 751 mmHg 90%
    19:00 +15°C° 0.1 mm 4 mps 751 mmHg 92%
    20:00 +16°C° 0.1 mm 3 mps 752 mmHg 95%
    21:00 +14°C° 0.1 mm 3 mps 752 mmHg 97%
    22:00 +14°C° 0 mm 3 mps 752 mmHg 97%
    23:00 +14°C° 0 mm 4 mps 752 mmHg 97%

    28 August, Wednesday

    Time Temperature Precipitation Wind Pressure Humidity
    00:00 +14°C° 0 mm 5 mps 752 mmHg 97%
    01:00 +14°C° 0 mm 5 mps 751 mmHg 97%
    02:00 +14°C° 0 mm 5 mps 751 mmHg 97%
    03:00 +14°C° 0 mm 5 mps 751 mmHg 97%
    04:00 +14°C° 0.2 mm 4 mps 751 mmHg 97%
    05:00 +15°C° 0.2 mm 4 mps 751 mmHg 98%
    06:00 +16°C° 0.2 mm 3 mps 751 mmHg 98%
    07:00 +15°C° 0.2 mm 4 mps 752 mmHg 96%
    08:00 +15°C° 0.2 mm 5 mps 752 mmHg 95%
    09:00 +15°C° 0.2 mm 5 mps 752 mmHg 93%
    10:00 +15°C° 0.1 mm 5 mps 753 mmHg 89%
    11:00 +15°C° 0.1 mm 5 mps 753 mmHg 85%
    12:00 +15°C° 0.1 mm 5 mps 753 mmHg 80%
    13:00 +15°C° 0 mm 5 mps 753 mmHg 78%
    14:00 +15°C° 0 mm 5 mps 753 mmHg 75%
    15:00 +15°C° 0 mm 5 mps 754 mmHg 72%
    16:00 +14°C° 0 mm 5 mps 754 mmHg 75%
    17:00 +14°C° 0 mm 5 mps 754 mmHg 78%
    18:00 +14°C° 0 mm 5 mps 754 mmHg 82%
    19:00 +12°C° 0 mm 5 mps 755 mmHg 86%
    20:00 +11°C° 0 mm 4 mps 755 mmHg 90%
    21:00 +10°C° 0 mm 4 mps 755 mmHg 94%
    22:00 +10°C° 0 mm 4 mps 755 mmHg 94%
    23:00 +9°C° 0 mm 5 mps 756 mmHg 95%
    Show more